Regional Weather Roundup
Issued by NWS Jackson, KY

Home | Current Version | Previous Version | Graphics & Text | Print | Product List | Glossary On
Versions: 1 2 3 4 5 6 7 8 9 10 11 12 13 14 15 16 17 18 19 20 21 22 23 24 25 26 27 28 29 30 31 32 33 34 35 36 37 38 39 40 41 42 43 44 45 46 47 48 49 50
000
ASUS43 KJKL 210710
RWRJKL

EAST KENTUCKY HOURLY WEATHER ROUNDUP
NATIONAL WEATHER SERVICE JACKSON KY
300 AM EDT THU AUG 21 2014

NOTE: "FAIR" INDICATES FEW OR NO CLOUDS BELOW 12,000 FEET WITH
NO SIGNIFICANT WEATHER AND/OR OBSTRUCTIONS TO VISIBILITY.

* THESE REPORTS ARE NOT UNDER NWS QUALITY CONTROL AND MAY NOT
  REPORT WEATHER SUCH AS PRECIPITATION AND FOG.

KYZ079-080-083-085-087-088-110-112-115-119-120-210800
...EASTERN KENTUCKY...

CITY           SKY/WX    TMP DP  RH WIND       PRES   REMARKS
JACKSON        MOCLDY    67  65  93 CALM      30.09F
LONDON         MOCLDY    69  65  86 SW5       30.11S
SOMERSET*      PTCLDY    68  68 100 CALM      30.10S
MONTICELLO*    PTCLDY    70  67  90 S6        30.10F
WILLIAMSBURG*  CLEAR     64  64 100 CALM      30.11
MIDDLESBORO*   MOCLDY    65  65 100 CALM      30.12S
HARLAN APT*    CLOUDY    64  64 100 MISG      30.13F VSB<1/4
HAZARD APT*    SUNNY     66  66 100 SW3       30.10S
BLACK MTN*       N/A     64  59  82 S5          N/A
PIKEVILLE APT* PTCLDY    64  64 100 CALM      30.10S
BIG SANDY*     MOSUNNY   68  66  95 SW5       30.09R
MOREHEAD APT*  MOSUNNY   68  68 100 CALM      30.09R
$$

KYZ035-036-041-042-044-050-067-078-099-210800
...CENTRAL KENTUCKY...

CITY           SKY/WX    TMP DP  RH WIND       PRES   REMARKS
MT STERLING*   MOCLDY    68  68 100 SW7       30.08S
FLEMING/MASON* CLEAR     66  66 100 S3        30.07S
DANVILLE*      PTCLDY    68  66  94 SW10      30.08S
RICHMOND*      PTCLDY    68  64  88 SW3       30.07S
LEXINGTON      PTCLDY    70  66  87 CALM      30.07R
FRANKFORT      MOCLDY    69  67  93 S3        30.05S
$$

KYZ091>093-OHZ055-061-077-WVZ005-015-034-035-042-210800
...SOUTHERN OHIO/WEST VIRGINIA...

CITY           SKY/WX    TMP DP  RH WIND       PRES   REMARKS
COVINGTON      PTCLDY    68  66  93 CALM      30.04S
COLUMBUS       CLEAR     74  66  76 W7        30.01S
DAYTON         MOCLDY    71  68  90 SW6       30.03F
WILMINGTON     PTCLDY    69  66  90 SW8       30.04S
HUNTINGTON     PTCLDY    68  67  96 CALM      30.05R
CHARLESTON     CLEAR     71  69  93 W7        30.06R
PINEVILLE*     MOCLDY    66  66 100 MISG      30.16R FOG
BECKLEY        MOCLDY    67  63  87 SW6       30.14R
BLUEFIELD      CLOUDY    66  60  81 W7        30.16R
$$

VAZ002-007-008-TNZ017-027-036-066-071-210800
...SOUTHWEST VIRGINIA/EAST TENNESSEE...

CITY           SKY/WX    TMP DP  RH WIND       PRES   REMARKS
WISE*          CLOUDY    64  64 100 SW9       30.18R
JONESVILLE*      N/A     66  66 100 CALM      30.16S
ABINGDON*      CLOUDY    68  68  98 SW6       30.16S FOG
BRISTOL        MOCLDY    67  64  90 SW3       30.14S
KNOXVILLE      MOCLDY    67  66  97 CALM      30.10F
OAK RIDGE      PTCLDY    67  66  97 CALM      30.12F
CROSSVILLE     PTCLDY    68  62  81 W3        30.15F
NASHVILLE      PTCLDY    71  70  96 CALM      30.08F
$$

...KEY TO REMARKS...
VSB - VISIBILITY IN MILES
WCI - WIND CHILL INDEX
HX  - HEAT INDEX

$$


USA.gov is the U.S. government's official web portal to all federal, state and local government web resources and services.